Location: Grand Canyon Star Party (South Rim)
(36.0641°N, 112.1172°W)
Time: 01:41:26
(UTC-07:00)

Hubble Space Telescope - Visible Passes

Search period start: 24 April 2018 00:00
Search period end: 04 May 2018 00:00
Orbit: 537 x 541 km, 28.5° (Epoch: 23 April)

Date Brightness Start Highest point End Pass type
(mag) Time Alt. Az. Time Alt. Az. Time Alt. Az.
24 Apr 3.0 20:13:52 10° S 20:14:24 10° SSE 20:14:24 10° SSE visible
25 Apr 2.7 20:02:24 10° S 20:04:20 13° SSE 20:05:16 12° SE visible
26 Apr 2.6 19:51:26 10° SSW 19:53:54 15° SSE 19:55:59 11° SE visible
26 Apr 3.4 21:31:04 10° SW 21:31:22 12° SW 21:31:22 12° SW visible
27 Apr 2.5 19:40:39 10° SSW 19:43:29 18° SSE 19:46:19 10° ESE visible
27 Apr 2.8 21:20:38 10° WSW 21:21:57 17° SW 21:21:57 17° SW visible
28 Apr 2.4 21:10:14 10° WSW 21:12:26 23° SSW 21:12:26 23° SSW visible
29 Apr 2.0 20:59:52 10° WSW 21:02:49 27° SSW 21:02:49 27° SSW visible
30 Apr 1.9 20:49:31 10° WSW 20:53:02 27° S 20:53:08 27° S visible
01 May 2.0 20:39:12 10° WSW 20:42:38 26° S 20:43:24 24° SSE visible
02 May 2.2 20:28:55 10° WSW 20:32:15 24° S 20:33:38 20° SSE visible
03 May 2.4 20:18:40 10° WSW 20:21:51 21° SSW 20:23:51 15° SSE visible
